Regional Weather Roundup
Issued by NWS

Current Version | Previous Version | Text Only | Print | Product List | Glossary On
Versions: 1 2 3 4 5 6 7 8 9 10 11 12 13 14 15 16 17 18 19 20 21 22 23 24 25 26 27 28 29 30 31 32 33 34 35 36 37 38 39 40 41 42 43 44 45 46 47 48 49 50
000
ASUS44 KOUN 290500
RWROK

WEATHER ROUNDUP FOR OKLAHOMA
NATIONAL WEATHER SERVICE NORMAN OK
1200 AM CDT TUE JUL 29 2014

NOTE: "FAIR" INDICATES FEW OR NO CLOUDS BELOW 12,000 FEET WITH NO
      SIGNIFICANT WEATHER AND/OR OBSTRUCTIONS TO VISIBILITY.

OKZ001>007-009>012-014-015-017-290600-
NORTHWEST OKLAHOMA AND THE PANHANDLE

CITY           SKY/WX    TMP DP  RH WIND       PRES   REMARKS
GAGE           PTCLDY    66  60  81 S3        30.23F
$$

OKZ016-021>023-033>039-044-045-290600-
SOUTHWEST OKLAHOMA

CITY           SKY/WX    TMP DP  RH WIND       PRES   REMARKS
LAWTON/REGL    MOCLDY    73  68  84 N3        30.18R
LAWTON/FT SILL CLOUDY    74  68  80 CALM      30.17S
FREDERICK      MOCLDY    75  71  87 SW3       30.16R
CLINTON        CLOUDY    74  69  85 NW3       30.23S
HOBART         CLOUDY    75  67  76 CALM      30.20S
$$

OKZ018>020-024>031-290600-
CENTRAL OKLAHOMA

CITY           SKY/WX    TMP DP  RH WIND       PRES   REMARKS
OKLAHOMA CITY  MOCLDY    78  61  55 CALM      30.17S
OKC/WILEY POST MOCLDY    74  64  71 CALM      30.18R
STILLWATER     CLEAR     66  62  87 CALM      30.16R
GUTHRIE        PTCLDY    69  63  81 CALM      30.17R
$$

OKZ008-013-054>072-290600-
NORTHEAST OKLAHOMA

CITY           SKY/WX    TMP DP  RH WIND       PRES   REMARKS
TULSA          PTCLDY    73  63  70 W3        30.13R
TULSA/JONES    CLEAR     67  62  84 CALM      30.14S
PONCA CITY     PTCLDY    69  62  78 CALM      30.16R
BARTLESVILLE   PTCLDY    63  60  90 CALM      30.16R
MUSKOGEE       CLEAR     69  62  78 CALM      30.14S
$$

OKZ032-040>043-046>053-073>077-290600-
SOUTH CENTRAL/SOUTHEAST OKLAHOMA

CITY           SKY/WX    TMP DP  RH WIND       PRES   REMARKS
MCALESTER      PTCLDY    67  63  87 CALM      30.14S
$$




USA.gov is the U.S. government's official web portal to all federal, state and local government web resources and services.